Home > Weather > Khon Kaen > Past weeks

Flag for Thailand Weather for the Past 2 Weeks in Khon Kaen, Thailand

Now
77 °F

Clear.


Feels Like: 78 °F
Forecast: 64 / 95 °F
Wind: 2 mph from Southeast

Location: Khon Kaen Airport

Current Time: Feb 11, 2016 at 11:07:49 PM

Latest Report: Feb 11, 2016 at 10:00 PM


Visibility: 5 mi

Pressure: 29.86 "Hg

Humidity: 34%

Dew point: 46 °F

Location of Khon KaenLocation

Historic Weather in Khon Kaen — Graph

°F

Khon Kaen Temperature Yesterday

Maximum temperature yesterday: 88 °F (at 3:00 PM)
Minimum temperature yesterday: 57 °F (at 7:00 AM)
Average temperature yesterday: 74 °F

High & Low Weather Summary for the Past Weeks

 TemperatureHumidityPressure
High93 °F (Jan 31, 4:00 PM)94% (Jan 28, 3:00 AM)30.27 "Hg (Jan 28, 3:00 AM)
Low48 °F (Feb 8, 7:00 AM)15% (Feb 8, 12:00 PM)29.77 "Hg (Jan 31, 4:00 PM)
Average74 °F51%29.98 "Hg
* Reported Jan 27 9:00 PM — Feb 11 9:00 PM, Khon Kaen, Weather by CustomWeather, © 2016

Note: Actual official high and low records may vary slightly from our data, if they occured in-between our weather recording intervals... More about our weather records

Advertising

Khon Kaen Weather History for the Previous 24 Hours

 ConditionsComfort  
Time TempWeatherWind HumidityBarometerVisibility
9:00 PM
Thu, Feb 11
79 °FClear.3 mph32%29.86 "Hg5 mi
8:00 PM79 °FClear.2 mph34%29.83 "Hg4 mi
7:00 PM81 °FClear.3 mph32%29.83 "Hg4 mi
6:00 PM88 °FClear.2 mph25%29.80 "Hg4 mi
5:00 PM88 °FClear.2 mph25%29.80 "Hg4 mi
4:00 PM91 °FClear.3 mph21%29.80 "Hg4 mi
3:00 PM90 °FClear.5 mph21%29.80 "Hg4 mi
2:00 PM91 °FClear.3 mph21%29.83 "Hg4 mi
1:00 PM90 °FClear.6 mph24%29.89 "Hg5 mi
12:00 PM86 °FHaze.6 mph27%29.92 "Hg2 mi
11:00 AM82 °FHaze.3 mph32%29.95 "Hg2 mi
10:00 AM77 °FHaze.2 mph42%29.98 "Hg1 mi
9:00 AM70 °FHaze.3 mph53%29.98 "Hg1 mi
8:00 AM66 °FHaze.6 mph52%29.95 "Hg2 mi
7:00 AM61 °FHaze.2 mph63%29.92 "Hg1 mi
6:00 AM64 °FClear.3 mph52%29.89 "Hg4 mi
2:00 AM63 °FClear.3 mph59%29.89 "Hg5 mi
1:00 AM66 °FClear.3 mph56%29.89 "Hg5 mi
11:00 PM
Wed, Feb 10
68 °FClear.No wind53%29.92 "Hg5 mi
Weather by CustomWeather, © 2016

See weather overviewHow to use our weather pages